Regional Weather Roundup
Issued by NWS

Home | Current Version | Previous Version | Text Only | Print | Product List | Glossary Off
Versions: 1 2 3 4 5 6 7 8 9 10 11 12 13 14 15 16 17 18 19 20 21 22 23 24 25 26 27 28 29 30 31 32 33 34 35 36 37 38 39 40 41 42 43 44 45 46 47 48 49 50

000
ASUS43 KOAX 031602
RWRNE

WEATHER ROUNDUP FOR NEBRASKA
NATIONAL WEATHER SERVICE OMAHA NE
1000 AM CST TUE MAR 03 2015

NOTES: SATELLITE DATA IS BEING USED TO AUGMENT CLOUD COVER ABOVE
       12000 FEET.
       "FAIR" INDICATES FEW OR NO CLOUDS BELOW 12,000 FEET WITH NO
       SIGNIFICANT WEATHER AND/OR OBSTRUCTIONS TO VISIBILITY.

  * THESE STATIONS DO NOT REPORT WEATHER SUCH AS RAIN...SNOW OR FOG.

NEZ001>004-019>022-054>056-031700-
NEBRASKA PANHANDLE

CITY           SKY/WX    TMP DP  RH WIND       PRES   REMARKS
SCOTTSBLUFF    LGT SNOW  18  10  71 N16       29.98R WCI   3
ALLIANCE       LGT SNOW  16  10  77 N21G26    29.94R WCI  -1
CHADRON        CLOUDY    15   9  76 NE14      30.02R HAZE    WCI   0
KIMBALL        FLURRIES  16  11  80 N22G28    29.87R WCI  -1
SIDNEY         FLURRIES  17   9  70 N25G36    29.92R WCI  -1
$$

NEZ057>060-069>072-079>082-031700-
SOUTHWEST NEBRASKA

CITY           SKY/WX    TMP DP  RH WIND       PRES   REMARKS
NORTH PLATTE   CLOUDY    24  12  60 N23G33    29.92R WCI   9
IMPERIAL         N/A     24  14  65 N28G35    29.92R WCI   7
LEXINGTON      CLOUDY    27  15  61 N29G36    29.90R WCI  11
MCCOOK         CLOUDY    32  21  64 N25G32    29.88R WCI  19
$$

NEZ005>010-023>029-035>040-094-031700-
NORTH CENTRAL NEBRASKA

CITY           SKY/WX    TMP DP  RH WIND       PRES   REMARKS
VALENTINE      LGT SNOW  18  11  74 N22G32    29.95R WCI   1
AINSWORTH      CLOUDY    17  11  74 N33G43    29.95R WCI  -3
BROKEN BOW     FLURRIES  25  13  60 N32G49    29.88R WCI   8
ORD            CLOUDY    23  11  60 N30G43    29.89R WCI   5
$$

NEZ041-046>049-061>064-073>077-083>087-031700-
SOUTH CENTRAL NEBRASKA

CITY           SKY/WX    TMP DP  RH WIND       PRES   REMARKS
GRAND ISLAND   CLOUDY    32  23  69 NW29G38   29.84R WCI  18
HASTINGS       CLOUDY    34  24  67 NW25      29.82R WCI  21
HEBRON         CLOUDY    36  25  65 N20G25    29.80R WCI  25
KEARNEY *      CLOUDY    28  18  64 N29G39    29.86R WCI  13
$$

NEZ011>018-030>034-042>045-031700-
NORTHEAST NEBRASKA

CITY           SKY/WX    TMP DP  RH WIND       PRES   REMARKS
NORFOLK        CLOUDY    27  19  72 NW24G43   29.81R WCI  12
BLAIR          CLOUDY    32  30  91 NW12G22   29.74R FOG     WCI  23
COLUMBUS *     CLOUDY    34  19  55 NW18      29.81R WCI  23
FREMONT        CLOUDY    34  31  88 NW20G25   29.77R WCI  22
TEKAMAH        CLOUDY    34  29  82 W17       29.76R WCI  23
$$

NEZ050>053-065>068-078-088>093-031700-
SOUTHEAST NEBRASKA

CITY           SKY/WX    TMP DP  RH WIND       PRES   REMARKS
LINCOLN        CLOUDY    35  28  75 NW20G30   29.79R HAZE    WCI  24
OMAHA EPPLEY   CLOUDY    33  30  88 NW17      29.75R FOG     WCI  22
FALLS CITY     CLOUDY    41  35  79 W15       29.74R
$$

NEZ044-045-051>053-067-031700-
OMAHA AREA

CITY           SKY/WX    TMP DP  RH WIND       PRES   REMARKS
OMAHA EPPLEY   CLOUDY    33  30  88 NW17      29.75R FOG     WCI  22
BLAIR          CLOUDY    32  30  91 NW12G22   29.74R FOG     WCI  23
FREMONT        CLOUDY    34  31  88 NW20G25   29.77R WCI  22
OFFUTT AFB     CLOUDY    34  31  91 NW17G24   29.75R WCI  23
$$


USA.gov is the U.S. government's official web portal to all federal, state and local government web resources and services.